Location: Centerville
(32.8776°N, 96.6203°W)
Time: 13:24:42
(UTC+00:00)

USA 307 - Pass Details

Date: 17 June 2021
Orbit: 565 x 576 km, 54.0° (Epoch: 17 July)

Event Time Altitude Azimuth Distance (km) Brightness Sun altitude
Exits shadow 08:34:05 54° 5° (N) 694 3.5 -26.1°
Drops below altitude 10° 08:37:34 10° 37° (NE) 1,864 6.5 -25.7°
Sets 08:39:50 0° 40° (NE) 2,762 7.7 -25.5°
